RH
14 11 11 12 14 13 16 12 18 28 34 52 31 21 35 32 39 38 32 35 48 65 54 34 34 42 42 44 52 46 35 22 20 20 20 77 97 98 100 98 99 88 81 80 72 68 76
13 8 8 8 12 13 17 12 22 25 37 52 25 25 35 34 42 40 35 50 54 66 66 38 32 38 41 47 54 39 24 22 29 20 45 91 91 94 92 84 81 89 73 66 53 54 57
11 10 9 9 15 13 14 10 16 23 43 39 20 27 37 37 49 38 40 37 42 66 68 46 38 40 52 54 43 30 22 20 18 54 74 84 92 80 79 76 74 63 62 32 35 27 6
15 7 8 16 21 15 14 10 9 22 40 22 21 32 39 45 47 48 43 44 51 58 68 53 39 67 65 40 31 26 20 20 24 62 76 82 93 81 72 70 65 63 34 25 9 7 10
18 13 10 10 19 17 11 9 11 33 41 20 23 36 43 47 50 52 40 67 73 55 72 78 78 71 30 30 33 24 20 25 34 57 61 68 79 79 69 59 47 19 29 15 14 15 14
22 25 16 13 16 18 8 9 17 43 33 18 24 37 50 35 49 40 48 74 64 68 73 87 54 29 51 45 59 30 19 32 58 60 58 54 43 59 50 21 9 13 24 19 30 46 23
26 28 22 20 21 15 8 9 34 44 19 17 30 50 45 40 43 57 77 69 60 89 58 34 39 46 43 34 25 32 21 24 48 50 60 35 34 32 29 34 30 49 27 44 31 34 52
25 29 22 21 21 12 8 15 46 29 15 28 53 60 76 51 85 80 69 86 84 33 30 34 39 37 23 16 18 20 26 33 30 42 32 14 36 33 52 71 68 72 37 33 33 35 34
26 26 22 20 18 10 8 36 39 16 20 50 44 68 46 80 73 84 78 38 23 28 32 36 35 28 22 18 15 13 13 15 26 62 23 35 37 70 90 85 82 73 69 73 68 56 43
30 24 19 19 13 9 13 44 22 15 36 57 38 68 18 62 75 55 17 24 29 30 29 24 18 13 13 12 9 9 12 20 19 23 31 31 25 25 33 31 36 54 62 71 65 56 56
27 21 17 14 12 8 26 36 16 23 48 45 23 33 25 12 16 16 26 29 27 21 19 16 22 28 26 26 26 27 23 22 22 22 21 30 36 32 25 22 23 23 25 22 18 17 20
26 19 16 14 12 15 36 24 16 32 45 40 17 13 14 13 17 21 20 18 19 22 25 25 23 18 16 18 18 19 21 21 22 22 24 31 25 19 17 16 20 25 26 26 25 23 23
27 20 18 16 10 30 34 16 27 39 41 23 12 13 14 18 16 18 18 20 24 26 17 15 10 8 9 9 9 10 12 13 16 21 30 25 19 23 26 28 25 21 16 16 17 20 20
40 27 20 13 11 40 24 18 34 42 28 22 11 14 14 15 17 21 22 23 20 16 10 9 8 9 10 8 10 9 9 10 16 21 30 24 19 18 13 12 16 20 21 19 21 23 22
52 34 18 19 28 41 22 25 41 43 28 11 11 12 12 16 21 24 19 13 14 8 9 10 10 10 10 10 10 9 8 8 9 8 11 14 13 13 16 19 22 26 29 30 27 22 21
40 42 31 30 42 37 22 36 43 40 26 10 12 11 14 19 21 19 13 17 18 9 10 11 12 11 10 9 7 6 6 6 7 8 11 15 20 23 22 26 29 25 20 21 21 21 22
62 44 37 40 61 34 18 42 46 32 19 10 13 13 18 19 17 15 15 44 12 11 12 11 10 9 7 6 5 5 6 7 10 11 13 21 21 26 29 30 22 21 21 22 20 19 18
74 54 48 57 62 20 24 44 46 24 12 10 16 17 17 16 15 12 25 19 14 12 10 9 6 7 12 13 10 8 9 13 12 14 20 20 28 31 31 26 25 23 23 21 17 16 15
71 65 72 92 48 16 29 44 41 22 10 12 17 19 18 14 14 10 12 13 12 12 10 8 7 18 27 21 17 17 17 17 16 23 18 26 31 31 29 27 27 28 25 18 16 17 16
45 84 89 100 40 17 37 41 28 19 10 12 19 19 17 14 15 11 9 13 13 12 11 8 7 25 30 27 24 26 24 27 22 20 24 31 31 31 25 25 25 22 18 18 18 17 17
78 90 100 96 30 22 43 36 21 17 9 11 16 18 15 14 12 10 9 11 13 12 10 7 5 23 28 25 26 26 28 26 23 26 31 29 27 24 20 18 18 18 19 18 19 18 18
45 86 99 82 24 38 41 31 18 13 9 10 15 19 15 16 16 10 9 10 12 10 7 6 5 14 32 28 29 23 24 24 26 31 32 27 25 20 17 17 17 18 18 19 20 19 19
100 94 98 66 30 51 44 28 14 11 8 11 16 18 16 15 13 10 10 10 11 10 6 6 5 9 28 30 22 23 22 22 27 32 33 26 20 16 15 15 15 16 18 18 19 19 19
43 91 100 38 52 59 43 20 12 10 8 12 15 16 15 14 13 12 12 12 10 10 6 6 5 6 24 30 28 22 17 15 19 27 32 32 26 18 16 17 14 18 18 19 18 19 20
72 100 78 48 68 55 22 17 9 9 7 11 13 13 14 14 14 13 11 10 10 9 6 6 5 5 7 27 29 29 28 18 16 16 22 27 29 26 22 18 17 16 18 19 19 19 21
92 99 52 63 82 36 18 14 8 8 7 9 11 11 11 12 12 12 11 10 10 9 7 6 5 5 5 5 14 24 26 28 26 17 17 18 20 23 21 20 15 16 20 21 20 19 22
100 98 60 71 85 33 17 12 9 8 9 8 10 11 10 10 11 11 10 11 10 9 8 6 6 5 5 5 5 5 9 16 20 22 17 16 19 21 23 20 16 21 22 21 21 22 22
100 96 76 76 98 45 17 13 9 9 10 8 8 10 11 9 10 10 11 11 11 10 9 8 7 6 5 5 5 5 5 6 7 12 21 24 20 21 23 22 17 22 21 22 24 24 23
100 88 92 92 96 81 54 15 10 10 10 13 11 8 8 9 9 10 14 15 14 12 9 8 7 7 6 6 6 5 5 5 6 7 18 28 37 32 30 27 25 24 23 23 24 23 23
Wind_Speed
51 49 49 49 49 45 48 44 35 31 32 27 25 25 24 22 20 24 22 20 16 14 12 12 10 13 15 16 16 16 18 19 20 24 34 34 30 31 28 23 25 17 16 17 14 10 12
54 50 50 51 50 47 48 44 31 30 33 24 25 24 22 22 19 16 18 17 16 16 14 11 15 13 15 15 16 18 21 27 31 31 39 36 37 31 22 19 17 16 10 9 13 7 11
55 53 52 50 52 46 45 42 32 31 26 23 23 23 23 20 15 15 16 15 17 16 14 13 15 15 14 13 17 21 25 29 31 38 37 35 30 26 19 15 20 9 12 9 8 10 8
53 55 52 50 48 45 44 39 31 30 23 23 23 22 20 21 21 17 16 16 17 20 16 16 15 13 12 15 19 25 29 32 39 41 35 29 30 24 21 17 14 16 12 12 12 12 12
53 55 51 50 46 45 41 38 28 24 23 24 22 20 20 22 24 21 17 16 16 20 16 16 13 12 13 18 19 27 31 37 40 41 39 35 33 26 20 13 15 16 19 15 13 12 9
55 53 50 45 46 44 40 34 27 23 24 23 21 20 18 14 15 17 17 15 16 15 14 13 13 14 18 23 24 30 27 32 36 35 32 30 31 29 21 20 21 21 20 17 15 8 7
54 50 47 40 41 39 39 30 25 24 23 22 20 19 14 14 16 17 17 18 19 16 12 12 16 18 20 20 26 31 25 24 18 27 24 18 25 28 28 24 20 20 25 15 15 9 6
54 50 36 38 40 37 38 26 23 23 20 18 13 13 14 17 18 21 20 19 17 16 15 19 19 20 20 20 24 26 25 25 22 24 27 29 30 26 23 21 18 16 21 9 6 2 6
48 44 33 35 35 37 32 23 23 22 18 15 11 14 12 24 21 19 10 18 18 18 21 22 22 21 19 19 22 24 25 27 28 32 30 27 27 29 23 17 15 14 12 11 8 8 10
48 39 33 32 34 37 27 24 23 21 18 15 13 12 14 12 15 15 18 19 21 21 21 22 22 21 21 22 22 24 26 29 28 25 23 21 19 21 18 14 12 11 12 13 12 14 20
46 40 32 32 33 34 25 26 24 24 19 18 18 15 15 14 17 21 23 24 24 25 26 25 24 24 23 23 23 22 23 21 17 15 15 14 12 16 17 15 12 11 12 13 14 15 19
49 42 38 34 39 30 28 28 27 26 22 21 17 17 17 22 25 27 29 29 28 27 25 26 24 24 23 22 21 21 21 19 17 14 14 18 15 15 14 12 10 10 11 14 17 19 23
53 46 43 40 38 31 32 28 30 28 22 21 18 20 27 31 33 34 32 29 28 28 26 24 23 22 20 20 18 18 15 15 15 15 16 20 17 15 14 13 12 13 15 16 17 17 19
57 53 48 43 38 36 35 31 32 29 24 20 23 32 35 36 35 33 31 30 28 26 26 25 22 20 18 17 15 16 15 15 15 16 17 17 14 13 13 10 9 9 9 10 10 9 11
58 54 48 44 41 38 36 35 36 29 27 26 33 40 39 36 35 32 32 30 28 27 24 20 20 17 15 15 15 14 15 15 17 16 15 14 13 12 10 8 8 6 6 5 4 5 7
55 53 50 45 43 41 38 39 38 31 30 33 44 42 39 38 36 34 31 29 25 23 20 18 16 14 14 15 15 15 16 16 16 14 13 14 11 10 10 10 8 7 4 3 1 3 7
56 52 47 44 45 42 41 41 39 34 34 40 48 44 41 40 37 35 33 26 24 22 19 16 13 13 14 16 17 17 17 15 15 14 15 15 13 12 12 11 9 7 5 2 3 7 10
58 50 47 45 44 43 42 42 39 39 39 47 50 46 43 42 39 36 34 27 24 19 14 10 8 9 12 13 14 15 17 17 17 16 17 15 13 14 13 11 7 5 5 6 8 11 14
56 49 46 46 44 43 42 42 40 43 44 51 51 47 44 42 39 37 32 27 22 17 13 7 6 8 12 12 14 16 17 18 19 18 17 16 15 15 12 12 10 10 10 12 13 14 14
54 49 45 45 43 43 43 42 41 44 47 55 53 50 46 42 39 36 33 27 21 17 12 8 6 9 11 13 16 17 17 18 18 17 16 17 16 14 12 11 11 12 13 14 15 17 17
52 45 44 44 43 42 42 42 42 45 51 57 54 50 44 43 40 37 33 27 21 17 12 10 7 10 9 11 13 15 16 17 17 17 18 17 16 15 13 13 15 15 17 18 20 21 22
48 45 42 44 43 42 41 40 42 47 54 56 53 50 46 42 40 38 33 27 22 18 12 10 8 10 10 9 11 15 17 18 19 18 20 19 18 17 16 17 18 19 21 25 25 26 27
44 43 42 43 41 41 40 39 43 51 57 57 53 49 46 44 42 39 33 27 24 18 14 12 10 8 12 12 13 16 18 20 21 21 23 22 21 21 21 22 24 22 24 28 28 27 30
41 42 45 41 39 40 38 39 44 52 57 56 53 49 47 44 42 38 34 30 26 20 17 14 11 9 13 16 17 16 17 19 21 22 24 25 25 27 26 27 30 25 27 30 32 31 33
39 44 42 38 39 36 36 39 45 54 57 56 52 48 45 43 41 41 36 31 28 23 19 17 15 13 14 19 20 19 18 20 21 24 26 28 30 31 33 32 35 30 30 34 36 35 35
38 43 39 36 37 31 35 39 46 54 55 56 53 48 46 44 43 40 37 35 31 26 22 21 20 17 16 17 21 22 23 22 23 24 26 30 33 35 36 38 38 34 34 37 39 37 38
38 42 38 34 33 30 34 39 45 51 52 55 52 50 46 45 43 41 39 37 33 29 25 24 23 22 21 20 20 22 25 27 27 26 26 31 33 36 38 40 40 36 38 39 40 42 41
42 42 38 34 32 28 33 37 42 46 50 52 51 50 48 45 43 41 40 38 35 34 31 29 28 27 28 27 26 26 28 28 29 31 31 33 36 35 37 39 41 39 40 41 42 43 44
44 42 38 34 33 30 30 35 40 44 48 50 49 49 48 46 42 41 41 40 39 37 35 35 33 31 32 32 33 33 35 35 35 36 34 37 37 38 38 38 40 42 43 43 45 45 44
Wind_Direction
265 266 270 280 287 298 302 306 302 301 301 288 272 276 276 275 274 267 246 243 238 237 249 259 216 203 209 207 205 212 209 184 172 168 165 167 172 179 172 179 181 170 179 185 186 216 232
264 266 268 275 285 293 301 301 295 301 299 273 267 274 269 269 279 252 236 237 234 224 239 240 209 198 193 195 207 210 191 169 167 164 159 165 173 168 170 181 183 190 188 213 224 261 250
260 262 267 273 281 288 297 295 292 299 287 265 267 269 272 260 266 249 237 236 235 222 224 231 201 197 197 204 207 201 176 175 170 160 166 174 173 175 184 188 196 180 200 250 223 211 175
259 260 264 272 280 284 292 289 290 293 267 268 268 270 262 268 254 257 242 247 225 219 227 217 200 202 206 203 199 190 182 177 172 170 174 176 180 184 196 200 202 211 221 172 170 175 181
258 259 263 267 279 282 287 288 289 277 259 266 269 266 268 267 250 239 238 231 216 212 217 214 212 211 201 186 194 194 186 182 177 176 181 188 190 189 195 211 224 192 170 177 178 175 181
255 259 263 265 274 278 282 286 286 257 261 262 268 273 264 236 210 217 216 214 202 210 207 210 221 193 179 182 185 196 197 188 180 179 187 199 200 205 193 189 182 169 177 181 173 156 188
250 255 258 263 271 276 276 280 275 249 256 263 269 263 224 224 193 201 194 198 207 199 202 194 171 168 183 179 180 191 191 180 173 190 188 184 160 156 167 169 173 174 187 189 178 166 215
247 250 243 258 265 270 270 274 253 246 249 256 258 228 206 197 193 195 210 224 197 177 183 171 166 161 161 163 160 174 183 185 178 169 172 167 164 162 162 172 183 184 178 182 158 195 259
229 234 236 248 260 259 262 260 237 237 236 239 236 197 200 194 204 201 207 170 169 168 156 148 153 156 162 166 167 160 167 166 169 175 176 170 172 174 180 188 199 196 182 205 228 253 276
208 222 221 240 248 252 251 241 229 228 225 218 222 200 200 180 187 185 182 160 152 152 151 150 151 152 157 156 154 156 163 171 182 182 175 184 189 190 196 209 201 212 226 236 243 256 269
203 205 214 227 239 243 240 222 222 219 208 218 211 212 203 190 181 171 160 155 154 153 152 152 152 152 153 153 154 159 172 178 179 183 185 191 220 197 197 203 204 214 228 243 252 256 261
196 202 210 217 232 228 222 212 215 213 207 218 204 205 180 173 166 157 153 152 154 157 156 154 156 158 157 160 162 169 179 179 185 199 205 211 209 205 214 215 220 231 243 251 255 258 258
194 201 203 214 219 214 209 207 209 208 210 199 200 174 168 163 155 153 151 156 161 165 159 161 160 159 162 165 175 186 193 191 193 198 211 215 214 211 220 228 236 246 251 254 259 260 263
193 198 199 206 213 203 203 199 208 204 200 191 175 168 162 159 155 155 159 163 168 167 166 162 165 168 170 173 178 192 198 199 199 197 205 220 223 227 241 244 239 229 235 244 254 259 268
194 195 193 198 203 198 197 196 203 200 189 181 170 166 162 161 161 164 169 171 171 169 167 168 168 175 182 190 196 204 209 210 211 210 213 223 230 233 221 210 210 213 228 244 278 295 306
193 190 189 196 196 196 194 196 201 195 184 174 171 168 166 167 169 173 176 174 173 172 172 170 178 194 203 213 218 220 219 219 221 217 211 216 207 192 197 199 184 170 164 153 327 346 2
190 188 188 195 197 194 191 196 198 192 182 175 173 172 174 173 176 179 179 172 167 172 178 184 195 214 226 229 223 216 220 219 216 208 197 203 193 187 186 181 168 167 175 180 335 329 331
189 188 190 194 197 194 190 197 196 187 181 177 175 176 178 179 183 185 181 173 166 173 187 194 212 218 217 220 214 212 212 207 199 198 191 188 187 186 183 186 194 213 257 272 302 320 325
189 189 189 194 195 192 191 195 193 186 180 178 178 180 182 186 188 189 187 185 182 190 200 207 223 198 199 198 188 202 203 205 199 193 195 188 184 188 194 208 233 250 271 291 303 308 309
189 188 189 196 194 192 193 192 191 185 179 180 181 185 185 190 191 194 191 188 193 199 212 228 218 209 201 196 195 196 195 195 196 196 197 194 191 198 209 224 243 257 273 284 294 295 304
189 188 194 192 195 191 193 192 190 185 181 184 185 188 190 192 193 197 189 187 199 217 223 231 235 217 210 202 204 205 200 199 200 202 201 201 206 214 229 243 256 270 278 286 291 299 308
186 193 201 189 195 192 192 192 190 186 183 186 188 189 192 194 197 202 194 193 202 218 226 233 243 210 211 205 206 210 205 207 206 210 210 212 218 231 241 251 264 274 285 290 294 302 307
189 198 197 189 192 192 191 193 190 186 185 187 191 191 194 198 201 202 201 206 212 220 224 235 244 234 210 211 215 219 216 215 215 217 220 225 233 243 248 259 264 270 283 285 292 297 302
193 196 190 190 190 190 193 193 190 186 186 190 192 194 198 201 204 209 210 212 217 221 228 234 241 243 229 223 226 231 234 232 230 230 233 237 244 252 257 263 267 275 280 287 290 295 300
191 197 184 188 189 190 193 192 188 186 188 192 194 197 201 206 207 214 214 217 222 226 235 244 247 247 239 235 236 236 243 247 246 243 243 247 251 257 262 267 274 278 283 286 290 294 298
190 187 186 186 189 191 192 191 188 187 189 194 196 199 204 208 212 215 218 222 225 230 237 245 254 255 256 254 249 248 249 252 249 252 254 256 259 261 265 268 273 278 282 284 287 293 294
194 184 187 183 192 194 192 190 190 188 191 198 199 203 208 212 217 219 221 226 231 237 242 247 254 261 265 265 267 266 262 259 260 259 254 256 259 260 264 270 275 280 283 285 289 291 298
191 184 185 184 192 194 193 191 190 191 195 200 203 207 211 215 219 223 225 230 234 239 245 250 255 261 265 268 271 273 274 274 273 270 265 264 265 268 269 273 278 280 282 284 288 292 295
184 184 184 186 188 187 189 192 193 194 198 204 206 211 215 218 221 225 228 232 237 243 248 254 258 263 268 270 272 274 277 279 278 275 273 272 270 272 273 277 280 281 283 286 288 291 295